Location: Unspecified
(0.0000°N, 0.0000°E)
Time: 17:25:08
(UTC+00:00)

Vanguard 2 Rocket - Visible Passes

Search period start: 16 August 2017 00:00
Search period end: 26 August 2017 00:00
Orbit: 553 x 3328 km, 32.9° (Epoch: 15 August)

Date Brightness Start Highest point End Pass type
(mag) Time Alt. Az. Time Alt. Az. Time Alt. Az.
16 Aug 7.4 04:19:36 27° N 04:19:36 27° N 04:21:58 10° NNE visible
16 Aug 10.4 20:14:25 10° SW 20:24:53 16° SSW 20:32:10 12° SSE visible
17 Aug 10.5 19:07:56 10° WSW 19:21:47 22° SSW 19:33:58 10° SSE visible
17 Aug 10.6 21:39:06 10° SSW 21:41:58 12° SSW 21:41:58 12° SSW visible
18 Aug 8.2 04:33:49 13° NNW 04:33:49 13° NNW 04:35:05 10° N visible
18 Aug 10.6 18:02:58 10° WSW 18:18:36 28° SSW 18:33:43 10° SSE visible
18 Aug 10.4 20:33:03 10° SW 20:41:51 15° S 20:45:56 13° S visible
19 Aug 10.5 19:26:42 10° SW 19:38:32 18° SSW 19:48:54 10° SSE visible
19 Aug 10.6 21:53:52 10° SSW 21:55:42 12° SSW 21:55:42 12° SSW visible
20 Aug 10.6 18:21:06 10° WSW 18:35:00 22° SSW 18:48:12 10° SSE visible
20 Aug 10.4 20:49:54 10° SSW 20:58:57 15° S 20:59:39 15° S visible
21 Aug 10.4 19:44:51 10° SW 19:55:42 17° S 20:03:35 12° SSE visible
21 Aug 10.7 22:07:46 10° SSW 22:09:24 12° SSW 22:09:24 12° SSW visible
22 Aug 10.6 18:39:32 10° SW 18:51:59 19° S 19:03:32 10° SSE visible
22 Aug 10.4 21:05:00 10° SSW 21:13:21 18° S 21:13:21 18° S visible
23 Aug 10.3 20:01:26 10° SSW 20:12:54 18° S 20:17:17 16° SSE visible
23 Aug 10.7 22:21:28 10° SSW 22:23:07 13° SSW 22:23:07 13° SSW visible
24 Aug 10.5 18:57:16 10° SW 19:09:17 18° S 19:20:06 10° SE visible
24 Aug 10.3 21:19:12 10° SSW 21:27:04 21° S 21:27:04 21° S visible
25 Aug 10.2 20:16:33 10° SSW 20:29:49 22° SSE 20:31:03 22° SSE visible
25 Aug 10.7 22:35:15 10° SW 22:36:53 13° SW 22:36:53 13° SW visible
